Location: Remedello Sotto
(45.2500°N, 10.3667°E)
Time: 04:35:53
(UTC+00:00)

Cosmos 2322 - Pass Details

Date: 03 February 2023
Orbit: 841 x 853 km, 71.0° (Epoch: 28 March)

Event Time Altitude Azimuth Distance (km) Brightness Sun altitude
Rises 18:52:10 0° 200° (SSW) 3,406 7.1 -25.6°
Reaches altitude 10° 18:54:37 10° 199° (SSW) 2,475 6.3 -26.0°
Enters shadow 19:00:16 80° 120° (ESE) 871 3.5 -27.0°
